Regional Weather Roundup
Issued by NWS Little Rock, AR

Home | Current Version | Previous Version | Graphics & Text | Print | Product List | Glossary On
Versions: 1 2 3 4 5 6 7 8 9 10 11 12 13 14 15 16 17 18 19 20 21 22 23 24 25 26 27 28 29 30 31 32 33 34 35 36 37 38 39 40 41 42
000
ASUS44 KLZK 240012
RWRLZK

WEATHER ROUNDUP FOR ARKANSAS
NATIONAL WEATHER SERVICE LITTLE ROCK AR
600 PM CST THU FEB 23 2017

NOTE: "FAIR" INDICATES FEW OR NO CLOUDS BELOW 12,000 FEET WITH NO
SIGNIFICANT WEATHER AND/OR OBSTRUCTIONS TO VISIBILITY.

ARZ001-003-010-029-240100-
NORTHWEST ARKANSAS

CITY           SKY/WX    TMP DP  RH WIND       PRES   REMARKS
FAYETTEVILLE   CLEAR     75  48  38 S21G29    29.47R
6HR MIN TEMP:  75; 6HR MAX TEMP:  80;

FORT SMITH     CLEAR     79  44  28 S9G20     29.47R
6HR MIN TEMP:  75; 6HR MAX TEMP:  88;

HARRISON       PTCLDY    72  49  44 S17G26    29.50F
6HR MIN TEMP:  72; 6HR MAX TEMP:  80;

BENTONVILLE    PTCLDY    75  46  35 S14G21    29.47R
6HR MIN TEMP:  75; 6HR MAX TEMP:  82;

ROGERS         MOCLDY    75  48  38 S18G25    29.47R
6HR MIN TEMP:  75; 6HR MAX TEMP:  81;

SILOAM SPGS    CLEAR     75  46  35 S21G26    29.45R
6HR MIN TEMP:  75; 6HR MAX TEMP:  82;

HIGHFILL       PTCLDY    76  48  37 S18G28    29.45R
6HR MIN TEMP:  76; 6HR MAX TEMP:  82;

SPRINGDALE     PTCLDY    77  46  33 S15G23    29.48S
$$

ARZ004-005-016-240100-
NORTH CENTRAL ARKANSAS

CITY           SKY/WX    TMP DP  RH WIND       PRES   REMARKS
BATESVILLE     CLEAR     70  57  64 SE9G17    29.60S
6HR MIN TEMP:  70; 6HR MAX TEMP:  75;

FLIPPIN        PTCLDY    73  52  46 S9        29.50S
6HR MIN TEMP:  73; 6HR MAX TEMP:  79;

MTN HOME       PTCLDY    73  52  47 S12G26    29.52R
6HR MIN TEMP:  73; 6HR MAX TEMP:  79;

$$

ARZ040-041-240100-
WEST CENTRAL ARKANSAS

CITY           SKY/WX    TMP DP  RH WIND       PRES   REMARKS
MENA           CLEAR     77  52  41 SE3       29.56S
MOUNT IDA      CLEAR     76  49  38 MISG      29.55R
6HR MIN TEMP:  74; 6HR MAX TEMP:  79;

$$

ARZ009-017-025-026-028-240100-
NORTHEAST ARKANSAS

CITY           SKY/WX    TMP DP  RH WIND       PRES   REMARKS
CORNING        FAIR      68  59  73 S10       29.61F
JONESBORO      PTCLDY    69  56  62 S10       29.61F
6HR MIN TEMP:  69; 6HR MAX TEMP:  74;

NEWPORT        CLEAR     70  57  63 S17       29.60S
6HR MIN TEMP:  70; 6HR MAX TEMP:  75;

WALNUT RIDGE   CLEAR     66  55  68 S12       29.59F
6HR MIN TEMP:  66; 6HR MAX TEMP:  73;

BLYTHEVILLE    CLEAR     70  56  61 S9        29.65S
6HR MIN TEMP:  70; 6HR MAX TEMP:  77;

$$

ARZ022-023-033-042-044-240100-
CENTRAL ARKANSAS

CITY           SKY/WX    TMP DP  RH WIND       PRES   REMARKS
LITTLE ROCK    PTCLDY    72  57  59 S9        29.60R
6HR MIN TEMP:  72; 6HR MAX TEMP:  79;

N LITTLE ROCK    N/A     73  58  59 S10G21    29.60R
6HR MIN TEMP:  71; 6HR MAX TEMP:  77;

JACKSONVILLE   CLEAR     73  60  63 SE9       29.58S
6HR MIN TEMP:  72; 6HR MAX TEMP:  78;

SEARCY         CLEAR     70  60  70 S14       29.62R
6HR MIN TEMP:  70; 6HR MAX TEMP:  76;

HOT SPRINGS    CLEAR     76  56  49 S10       29.57S
6HR MIN TEMP:  72; 6HR MAX TEMP:  80;

RUSSELLVILLE   CLEAR     75  51  43 S6        29.54S
6HR MIN TEMP:  71; 6HR MAX TEMP:  81;

CLINTON        FAIR      73  57  56 SE5G12    29.57R
$$

ARZ036-240100-
EAST ARKANSAS

CITY           SKY/WX    TMP DP  RH WIND       PRES   REMARKS
WEST MEMPHIS   CLEAR     70  57  63 S15       29.64F
6HR MIN TEMP:  70; 6HR MAX TEMP:  75;

$$

ARZ050-053-066-070-073-240100-
SOUTHWEST ARKANSAS

CITY           SKY/WX    TMP DP  RH WIND       PRES   REMARKS
ARKADELPHIA    FAIR      74  58  57 S6        29.59R
6HR MIN TEMP:  74; 6HR MAX TEMP:  80;

CAMDEN         CLEAR     75  50  41 S12       29.60S
TEXARKANA      CLEAR     75  55  49 S14       29.57R
6HR MIN TEMP:  75; 6HR MAX TEMP:  81;

EL DORADO      CLEAR     74  56  53 SE9       29.62F
6HR MIN TEMP:  74; 6HR MAX TEMP:  80;

DE QUEEN       CLEAR     79  52  38 S7        29.53R
6HR MIN TEMP:  76; 6HR MAX TEMP:  83;

$$

ARZ056-057-069-240100-
SOUTHEAST ARKANSAS

CITY           SKY/WX    TMP DP  RH WIND       PRES   REMARKS
PINE BLUFF     CLEAR     72  55  55 S13       29.62S
6HR MIN TEMP:  72; 6HR MAX TEMP:  78;

STUTTGART      CLEAR     70  54  56 SE13      29.62F
6HR MIN TEMP:  70; 6HR MAX TEMP:  75;

MONTICELLO     CLEAR     73  55  53 S9        29.64F
6HR MIN TEMP:  73; 6HR MAX TEMP:  79;


$$






USA.gov is the U.S. government's official web portal to all federal, state and local government web resources and services.